Theta_e
335 336 338 340 341 341 341 342 343 344 345 347 347 348 349 348 349 348 351 351 351 349 349 348 347 347 347 346 347 347 349 351 355 356 358 359 361 360 360 359 359 360 359 358 358 360 357 356 357 357 357 356 354 353 353 351 351 352 356 358 354 350 349 345 345 344 344 345 343 342 344 346 351 352 349 349 350 352 353 354 356 356 355 354 355
335 334 336 339 340 341 341 341 343 340 343 345 346 347 348 348 348 348 350 350 350 349 349 349 349 348 347 345 346 346 349 352 352 355 357 360 361 359 360 358 358 359 361 358 358 358 355 355 356 356 356 355 355 355 354 357 359 355 354 351 353 349 347 346 344 344 339 338 339 338 341 340 348 353 348 348 348 350 352 354 355 354 354 354 355
332 333 335 337 339 340 340 341 341 341 342 344 346 347 347 347 348 348 349 349 349 350 349 348 348 350 348 346 347 346 350 353 354 356 359 359 360 359 360 358 357 358 361 360 357 357 355 355 355 356 355 356 355 353 354 355 354 354 353 351 350 352 354 346 343 343 340 339 340 339 333 332 343 342 343 345 347 348 349 350 352 352 353 355 356
331 331 333 336 337 339 339 340 340 341 341 343 345 345 346 347 347 348 348 349 348 349 351 349 349 349 348 346 347 348 347 352 355 357 359 359 358 359 359 357 357 357 360 359 358 356 355 354 354 355 355 357 354 353 352 353 353 352 352 355 350 344 342 344 350 347 342 342 337 332 331 332 330 335 334 339 340 344 346 347 349 350 352 354 356
331 331 332 334 336 337 338 340 340 339 340 342 344 345 345 346 347 347 347 348 348 350 350 348 350 346 345 345 348 349 350 350 350 352 356 358 358 358 358 358 357 358 359 359 359 356 355 354 354 354 355 355 355 353 352 353 353 352 352 354 349 347 343 342 345 347 343 346 340 335 334 331 330 333 332 339 339 342 342 343 347 349 349 352 353
333 332 332 334 335 337 338 340 339 339 339 341 344 345 345 346 347 347 347 347 347 348 349 347 348 344 341 340 339 341 342 344 345 347 351 354 356 359 359 359 358 358 359 359 359 356 354 354 354 355 355 356 356 354 354 354 353 354 355 356 351 348 347 341 340 350 345 349 341 342 342 334 334 335 333 334 338 343 342 342 342 345 348 350 353
334 334 333 333 335 336 337 338 339 339 340 342 343 344 345 346 346 347 347 347 347 347 348 348 345 344 342 341 341 341 340 343 348 350 352 355 358 358 359 360 359 358 359 359 358 358 355 354 354 355 355 356 358 355 354 354 355 355 356 355 354 355 347 344 340 340 346 347 348 346 349 346 342 339 336 332 332 337 337 339 340 340 343 346 348
334 334 334 333 334 336 336 338 339 340 341 341 342 343 344 345 346 346 347 348 347 347 347 347 345 343 342 341 341 340 341 342 346 349 353 357 357 357 358 360 359 360 359 359 358 357 355 354 354 355 355 356 359 357 356 356 357 358 358 355 355 356 350 347 343 340 347 342 352 348 346 348 345 340 338 336 336 331 334 336 336 336 341 343 346
335 334 334 333 333 335 337 338 340 341 341 340 341 342 344 345 346 347 346 347 347 347 347 346 347 344 343 341 340 341 341 344 349 352 353 357 355 356 358 359 359 360 361 359 358 357 358 355 355 355 355 356 361 358 358 357 358 357 358 355 355 355 351 348 348 345 339 342 341 340 342 344 341 340 340 341 337 331 331 331 335 338 339 341 342
335 336 336 335 334 335 337 339 339 340 341 342 342 342 343 344 345 346 345 346 347 346 347 346 346 347 342 341 340 339 343 344 349 350 352 354 354 354 356 357 358 359 360 360 359 358 358 358 356 355 356 356 361 360 359 358 357 357 357 357 355 356 354 355 351 348 342 342 343 342 338 341 341 339 337 339 335 333 332 331 334 333 335 341 341
335 336 337 337 335 335 337 337 339 340 340 340 340 341 342 343 344 344 345 346 347 346 347 345 345 345 343 341 340 339 339 341 344 347 350 352 352 352 354 356 358 358 359 360 360 360 359 359 357 357 358 360 362 361 360 359 357 357 357 357 356 355 354 356 360 354 347 346 344 345 344 339 340 336 336 337 334 334 334 334 333 335 334 333 342
335 335 336 337 335 334 336 336 337 338 339 339 340 340 342 343 344 343 344 345 345 346 346 345 345 345 344 342 340 340 339 339 342 345 348 350 351 351 353 355 356 357 358 359 359 360 360 359 360 359 359 360 361 362 362 360 359 357 357 357 356 355 355 357 355 356 353 349 348 344 342 340 341 341 340 339 340 339 337 334 333 337 339 336 338
334 335 336 336 335 333 334 335 337 337 337 338 339 339 341 342 343 343 343 344 345 345 345 345 345 345 344 342 341 341 339 340 341 343 347 350 351 351 351 352 354 354 356 357 358 359 360 359 359 358 359 360 361 361 362 361 359 357 357 356 356 356 356 356 354 354 353 351 349 347 346 343 343 344 343 341 339 340 337 333 335 335 339 339 344
334 335 336 336 336 334 334 335 336 337 337 337 338 339 340 341 342 342 342 344 345 345 345 345 345 345 345 343 342 342 339 340 340 341 345 349 350 351 351 352 352 353 355 356 359 359 360 360 361 360 360 360 361 361 361 361 360 357 357 357 356 358 357 356 356 355 353 351 349 346 345 345 344 344 343 343 341 341 339 336 336 339 337 338 340
334 334 335 336 336 335 334 335 336 337 337 337 337 338 339 340 342 342 342 343 344 344 345 345 344 345 345 344 343 342 340 340 340 341 344 347 348 350 350 352 353 354 355 357 359 359 360 360 360 360 359 360 361 361 361 361 361 358 359 358 359 358 358 357 356 355 354 353 351 350 349 347 346 347 343 344 345 345 344 341 338 335 335 334 338
334 334 335 336 337 336 335 335 336 337 337 337 337 338 338 340 341 342 342 342 343 345 344 345 345 345 345 344 343 343 344 341 341 343 343 346 347 349 349 351 353 354 355 356 357 359 359 359 360 360 360 359 360 360 360 360 359 358 357 358 358 360 358 357 357 356 355 355 354 352 352 352 353 351 351 350 348 348 346 342 344 342 338 335 335
334 334 334 336 337 336 335 335 336 337 337 337 337 338 338 340 341 341 342 342 343 344 344 345 345 344 344 344 343 343 342 340 339 340 341 343 346 347 348 350 352 353 353 356 356 358 359 359 359 360 360 360 359 360 360 359 358 358 357 356 357 359 360 358 357 357 357 356 355 354 355 354 353 353 353 354 353 348 345 344 345 344 342 341 335
335 335 336 336 337 337 336 336 336 336 337 337 337 338 339 340 341 341 342 341 342 343 344 344 344 344 344 344 344 343 342 342 341 340 341 341 343 345 347 348 349 351 353 354 355 356 357 362 359 359 360 359 359 359 359 359 358 357 357 357 357 359 359 360 359 358 358 357 357 356 354 355 356 355 355 354 356 354 350 347 345 344 346 345 339
334 335 335 336 336 336 336 335 336 337 338 338 338 338 338 339 341 341 341 342 342 343 344 345 345 344 344 344 344 343 343 343 342 342 341 340 340 341 343 346 348 350 353 353 353 354 356 358 359 359 359 359 359 359 359 358 358 357 357 356 357 358 358 358 359 359 358 358 357 356 355 355 355 355 355 354 356 355 354 349 347 343 345 349 342
334 335 336 336 336 337 337 336 335 336 337 337 337 338 337 339 340 341 342 343 343 343 344 344 345 345 344 344 344 344 344 344 343 342 340 339 340 340 341 342 345 350 350 351 352 353 355 356 357 358 358 358 358 359 359 359 357 357 357 356 357 357 356 357 357 358 358 358 357 356 356 356 356 355 355 354 354 356 352 350 349 345 345 342 342
335 335 336 337 337 337 337 338 337 337 338 338 337 337 337 338 339 341 340 341 342 343 343 344 345 345 346 344 343 343 343 344 343 343 341 340 340 342 341 342 345 346 349 349 350 351 353 355 356 358 357 358 358 358 359 359 358 357 356 357 357 356 356 356 357 357 357 358 358 356 356 356 356 357 357 356 355 355 354 351 350 349 347 345 345
331 336 336 336 339 338 338 338 338 337 336 337 337 337 337 337 338 340 340 341 341 342 343 344 345 345 344 344 344 343 343 343 342 342 343 341 340 341 342 343 342 344 348 349 349 350 352 354 355 356 357 358 358 358 358 358 357 357 356 355 355 356 356 356 356 356 357 357 357 357 356 356 356 356 356 356 356 356 355 354 353 351 349 348 346
323 326 332 336 339 339 337 337 337 337 337 337 337 336 336 337 338 339 340 340 342 342 344 345 344 344 345 345 345 344 343 342 341 341 342 342 341 340 342 342 341 342 347 348 348 350 351 352 354 355 356 357 357 357 358 358 358 357 356 356 356 356 356 355 354 356 356 357 356 356 356 356 355 356 356 356 356 356 356 356 355 353 353 352 349
320 323 325 327 331 335 337 342 337 337 337 337 337 337 337 337 337 338 339 340 341 342 344 344 344 344 344 345 344 344 343 342 341 341 341 342 342 341 342 340 341 343 344 348 349 350 350 351 351 353 355 356 356 356 357 357 357 357 357 357 357 356 356 356 355 355 355 356 356 356 355 356 356 355 356 356 356 356 356 356 355 354 354 354 354
317 319 321 322 324 326 328 331 336 339 338 338 337 339 337 337 338 338 339 341 341 343 343 343 344 344 344 344 344 344 343 342 341 341 341 341 342 342 342 340 340 340 343 345 348 350 350 350 350 351 352 354 355 356 356 356 357 357 357 357 357 357 357 357 356 356 357 356 356 355 356 356 356 355 355 354 355 356 356 355 355 355 355 355 355
316 317 318 319 321 323 324 326 329 333 338 341 339 338 339 337 338 339 339 340 341 342 342 342 343 343 344 343 343 343 343 343 343 342 341 341 341 341 342 343 341 339 340 342 345 347 348 349 350 351 351 352 354 355 355 355 356 356 357 357 357 357 357 357 357 357 357 357 356 356 356 356 356 355 355 355 356 355 355 355 355 355 355 355 355
315 316 317 319 319 320 322 324 326 328 331 336 342 340 339 339 339 339 340 340 341 342 342 342 342 343 343 343 343 343 343 343 344 344 343 342 341 341 341 341 344 342 340 339 341 344 347 347 348 350 351 352 352 354 354 355 355 356 357 357 356 356 357 356 357 357 357 357 357 356 356 356 356 356 355 355 356 356 355 356 356 357 356 354 354
314 314 315 316 318 319 320 322 324 325 327 330 334 339 344 342 340 340 341 341 341 342 342 342 343 343 343 343 344 345 344 344 344 345 345 344 343 342 341 341 342 343 342 341 340 340 343 346 346 347 349 351 352 353 353 354 355 355 356 356 356 356 356 356 356 357 357 357 357 357 356 356 356 357 357 357 357 357 357 356 357 356 356 355 354
312 313 314 315 316 317 319 320 322 323 324 326 329 331 334 341 347 343 342 342 343 342 342 342 342 343 344 345 346 346 346 346 346 345 345 344 344 344 343 342 342 341 342 343 343 342 341 342 344 345 346 347 349 351 352 353 353 354 355 355 356 356 356 356 356 356 356 357 357 357 357 357 359 360 358 357 357 358 357 356 357 356 356 355 355
312 313 313 314 315 316 317 319 321 322 322 324 326 327 329 331 337 344 345 344 344 343 343 342 342 343 344 346 347 347 347 347 346 346 345 345 345 344 344 343 342 341 341 343 343 344 343 342 342 344 345 345 346 347 347 339 343 353 354 354 355 356 356 356 356 356 355 356 356 356 358 361 360 359 354 351 348 350 356 357 358 357 356 356 355
310 312 313 314 315 316 317 317 319 321 321 323 324 326 327 329 331 339 346 349 347 345 344 343 343 344 345 347 347 348 348 347 347 347 347 346 346 345 345 344 343 342 342 342 343 342 342 343 343 343 343 345 346 346 337 332 333 337 351 354 354 355 356 356 356 356 355 355 355 356 357 359 362 363 359 349 347 345 346 348 351 357 359 357 355
310 311 312 313 315 315 316 317 318 320 321 321 324 325 325 327 330 333 345 348 350 348 346 345 346 347 347 347 347 348 348 348 348 347 347 347 347 346 346 345 344 343 343 342 341 341 342 343 343 344 343 344 346 339 331 330 331 331 338 353 354 354 354 355 356 355 355 356 355 355 355 356 358 360 361 362 355 347 342 343 343 345 348 352 352
310 310 311 312 313 314 315 317 319 320 320 322 325 324 324 326 329 331 343 346 346 349 349 348 348 347 347 347 347 347 348 348 348 348 348 348 347 347 346 345 344 345 344 343 342 341 341 342 343 343 343 344 345 336 329 328 329 329 330 342 353 354 353 354 355 355 355 355 356 355 355 356 355 359 360 360 360 360 348 340 341 343 345 344 339
311 311 311 312 313 314 315 317 320 320 320 322 325 325 325 328 330 332 338 342 343 343 345 348 348 347 347 347 347 348 348 348 349 349 349 348 347 347 346 347 346 346 345 343 343 342 342 342 342 342 344 345 345 336 328 325 326 327 328 334 352 353 354 354 354 355 355 355 355 355 355 355 356 357 359 359 359 359 359 358 354 352 352 353 346
312 312 312 312 313 314 315 316 319 320 320 319 320 321 324 327 329 331 334 336 342 342 344 346 347 348 347 348 348 348 348 349 349 349 349 348 348 348 347 347 347 346 345 344 343 343 342 343 342 342 343 343 344 333 326 324 323 323 326 331 349 352 353 353 354 354 355 355 355 355 356 355 356 355 357 357 358 358 358 357 357 355 354 354 355
313 313 313 313 313 313 313 315 319 317 318 319 318 320 322 324 329 331 333 334 335 340 343 344 345 347 349 349 349 349 349 350 349 350 349 348 348 348 347 348 348 347 347 347 346 345 344 343 343 343 342 342 344 329 324 323 322 322 324 337 346 350 351 352 353 353 354 355 356 356 355 355 355 355 353 344 351 357 357 356 355 355 355 355 355
314 315 315 316 315 315 315 317 317 316 317 318 319 320 321 323 326 330 332 332 333 336 341 344 346 347 348 350 350 349 349 350 350 349 349 349 349 349 349 350 348 347 346 346 346 345 346 345 345 344 343 343 344 334 323 321 320 320 324 340 345 348 350 351 351 353 354 354 355 356 355 355 355 355 347 333 335 352 356 354 354 353 354 353 354
313 314 315 316 316 317 317 317 316 316 316 317 318 320 321 322 325 328 329 331 332 335 339 342 344 347 348 349 350 350 350 350 350 349 349 350 351 351 351 351 348 347 347 347 347 347 347 347 346 345 345 344 345 338 322 319 318 318 327 342 344 346 348 349 351 353 354 354 355 358 358 355 354 355 338 331 330 343 354 354 353 352 351 351 352
312 313 313 314 316 317 318 316 315 314 316 318 318 318 319 321 324 326 327 329 330 332 334 334 335 338 342 348 350 350 350 349 350 351 351 350 351 352 353 353 351 350 349 350 350 349 348 348 348 347 344 345 346 340 323 319 317 316 326 343 345 346 346 348 349 350 353 353 354 356 357 353 352 348 333 329 327 339 352 353 354 352 350 351 352
309 311 314 316 317 317 316 315 314 315 316 317 318 318 319 321 323 326 327 328 330 332 333 334 335 335 338 340 344 349 350 349 349 351 352 352 353 353 353 353 354 353 351 351 351 350 349 348 349 349 349 347 347 348 342 319 317 315 318 343 347 345 346 347 348 349 350 352 353 353 351 335 331 331 328 325 323 325 349 353 353 351 351 350 354
307 309 314 313 315 315 315 315 315 316 316 317 317 316 317 320 323 324 325 326 329 331 332 334 335 335 337 339 341 344 349 350 350 351 352 353 354 353 353 353 353 353 353 352 351 351 350 350 350 350 350 350 349 349 347 321 316 314 315 326 346 346 347 348 348 348 350 350 351 352 353 339 326 324 323 322 320 319 330 353 354 352 353 352 351
309 311 311 310 312 314 315 315 317 317 317 316 316 316 318 320 321 321 323 324 327 329 331 333 335 337 339 340 342 344 348 351 352 352 351 351 353 354 354 354 354 354 353 352 352 351 350 350 351 350 350 350 349 341 351 327 317 313 313 316 341 348 348 349 348 349 350 350 351 351 352 342 326 322 321 320 317 318 319 344 352 333 332 332 348
306 307 309 310 310 311 313 314 316 316 317 316 315 316 317 319 319 321 322 323 326 328 329 330 333 337 340 342 344 345 348 346 345 349 351 350 351 352 353 354 354 354 353 352 352 351 351 350 350 351 351 352 352 350 333 343 320 313 312 312 322 337 332 349 349 348 349 350 351 352 353 341 325 319 317 317 317 317 320 331 325 324 325 328 342
306 307 308 310 309 310 310 313 315 316 317 317 316 316 317 318 319 322 322 324 325 327 328 329 332 336 339 344 346 348 349 347 347 348 348 349 350 351 352 353 353 353 352 351 351 351 351 349 349 349 351 351 352 352 338 328 334 315 313 311 313 320 327 343 350 350 351 351 351 352 348 330 320 314 314 316 318 318 329 320 317 320 324 332 342
305 305 308 309 308 308 309 310 313 315 317 317 317 316 317 317 319 322 323 323 324 326 327 328 330 333 337 340 345 349 348 345 345 347 346 347 348 350 350 352 353 352 352 351 351 351 350 350 349 349 350 351 352 353 353 338 324 321 314 312 312 315 318 323 344 351 352 352 339 330 327 323 321 316 315 316 317 317 316 319 318 320 335 340 342
305 305 305 307 307 307 308 309 311 314 316 318 317 316 316 317 320 322 322 323 324 325 326 327 329 331 334 336 338 345 354 348 348 349 349 348 347 348 348 350 352 352 352 351 351 351 350 350 350 350 350 351 352 352 352 352 335 328 320 314 314 314 318 320 330 345 336 334 329 325 323 322 322 324 331 334 337 336 321 318 321 327 335 340 342
303 304 307 305 306 306 307 309 310 313 314 316 316 316 317 319 321 322 322 323 323 324 325 327 327 328 331 333 335 339 345 349 352 353 355 354 351 348 347 346 348 351 352 352 351 351 350 350 349 350 351 351 351 351 352 352 351 345 340 331 321 321 317 318 327 338 335 341 339 336 337 328 331 330 332 333 334 337 336 332 330 333 337 339 342
304 304 306 305 305 305 306 308 310 311 313 315 316 316 317 319 321 322 322 322 322 323 324 325 325 327 328 331 334 339 343 345 347 349 351 354 355 350 348 345 345 347 349 351 351 351 349 350 350 350 351 351 351 351 351 351 352 349 345 342 333 330 328 328 330 334 341 346 348 339 336 344 344 343 340 342 343 345 345 341 338 337 339 341 343
303 303 306 304 305 306 307 309 310 312 313 315 315 316 317 319 321 323 322 321 321 323 324 323 324 325 327 331 334 337 341 344 346 348 350 351 353 352 349 348 349 350 352 352 352 352 353 353 352 351 350 349 350 350 351 335 350 332 342 345 340 336 336 334 329 325 340 344 346 347 349 347 346 345 344 344 345 345 344 345 344 343 341 341 343
303 304 304 304 306 307 308 309 310 312 314 315 316 316 317 319 321 323 322 320 321 322 321 322 324 325 327 330 333 336 339 343 343 344 345 347 342 330 340 351 350 339 333 331 332 351 355 355 353 354 354 351 351 352 333 323 320 318 318 322 324 322 321 332 327 319 332 342 343 343 345 345 345 346 346 346 346 345 345 345 345 337 343 342 341
303 303 303 303 304 308 309 310 312 315 315 315 315 316 316 318 322 323 321 320 321 321 322 322 324 325 326 329 331 333 336 340 342 343 345 344 345 344 316 318 331 340 331 322 318 320 324 330 349 354 349 333 331 328 323 315 313 313 313 314 314 314 313 315 315 327 336 341 342 342 342 344 345 346 346 346 347 347 347 346 346 345 345 343 340
Wind_Speed
12 13 13 13 13 12 11 11 10 11 10 11 11 11 11 10 9 9 7 8 7 7 6 7 6 5 4 6 6 5 4 4 4 4 4 3 4 4 4 4 4 4 4 5 4 4 3 3 3 3 3 3 3 3 1 1 0 1 1 2 1 1 2 1 2 3 3 2 3 3 3 1 3 4 5 4 5 4 3 3 3 3 3 3 3
10 11 12 13 12 13 11 10 10 12 9 11 12 12 11 11 11 9 7 8 8 8 7 7 6 6 5 5 4 4 4 5 5 4 4 3 4 4 4 4 4 4 4 4 4 5 4 3 3 4 4 3 2 1 1 1 1 1 1 0 2 1 0 1 1 2 3 1 2 4 4 4 0 2 2 3 3 3 3 3 3 4 4 4 3
12 13 14 13 14 14 12 11 11 13 13 13 13 12 11 11 10 9 8 9 8 8 7 7 5 5 6 4 6 3 3 4 5 4 4 4 4 4 4 4 4 4 4 4 4 4 5 4 4 4 4 4 3 2 2 2 1 1 1 1 0 1 2 1 2 2 2 0 2 2 3 5 4 3 2 3 3 3 3 4 4 4 6 4 3
13 13 15 14 14 13 12 11 12 11 11 11 12 13 11 10 10 10 9 8 8 8 8 7 6 4 3 5 5 4 4 3 3 2 3 4 4 3 3 4 4 4 4 4 3 4 5 5 3 4 4 4 4 3 2 2 2 2 1 1 1 1 2 1 0 2 2 3 2 2 2 1 4 4 4 5 2 2 3 4 3 4 4 3 2
13 12 13 14 14 14 14 13 11 12 12 12 12 12 9 12 11 11 10 9 8 8 8 6 6 5 4 3 3 2 2 3 3 3 4 4 3 4 5 4 5 4 4 4 4 4 4 4 4 3 3 4 3 3 2 2 2 2 3 2 1 2 2 2 1 1 2 1 5 1 2 3 1 3 4 4 3 2 3 4 4 5 5 3 3
13 14 14 14 14 13 14 13 13 12 12 12 12 13 12 11 11 10 9 8 9 9 9 8 7 7 7 7 7 6 5 5 6 7 5 5 7 4 4 5 4 4 4 4 4 4 4 4 4 4 4 4 3 3 2 1 2 3 3 2 2 1 2 3 1 2 2 2 3 3 2 2 2 2 2 4 5 2 3 3 4 4 4 4 4
10 11 11 13 14 14 15 14 14 14 12 11 11 12 12 12 12 11 10 9 8 8 9 8 7 7 9 9 8 8 8 6 5 5 6 6 5 5 5 5 5 5 4 4 5 4 4 4 4 4 4 3 4 3 2 3 2 2 2 2 2 2 2 2 1 2 1 1 1 2 1 1 3 1 3 0 5 5 3 2 3 3 4 4 4
11 13 13 14 15 16 16 15 14 14 12 11 11 11 12 12 12 11 9 9 8 8 9 9 9 9 8 7 7 7 7 6 6 6 5 4 6 6 5 6 6 5 5 5 5 4 4 4 4 4 4 3 4 4 3 2 1 1 2 2 2 2 2 2 1 1 1 2 2 2 1 1 1 1 3 3 2 3 7 4 2 3 2 3 4
12 12 14 15 15 15 15 15 14 14 12 13 12 12 12 11 11 10 10 10 9 10 10 10 9 9 9 7 7 6 5 5 5 5 5 5 6 4 5 6 6 6 5 5 5 5 5 4 4 4 3 4 4 3 3 3 3 2 2 3 3 2 2 2 2 2 3 3 1 1 2 2 2 2 1 1 3 2 5 2 5 4 2 2 2
14 14 14 14 15 15 15 15 14 14 13 12 12 11 11 10 11 12 11 10 9 10 11 11 9 8 8 8 9 7 5 4 5 6 6 6 6 6 5 5 6 6 6 6 5 5 5 4 4 5 4 4 4 4 3 3 3 3 3 3 3 3 2 2 2 2 2 1 2 1 1 2 2 1 2 2 3 1 3 6 5 5 6 5 2
14 14 14 14 14 14 14 16 16 14 12 12 12 12 11 12 12 13 13 10 10 11 11 12 10 9 9 9 9 9 7 7 6 6 5 5 6 5 6 6 6 6 6 6 6 5 5 5 5 5 4 4 3 4 4 4 3 3 3 3 3 4 3 3 2 1 2 2 2 2 3 3 3 2 3 1 1 2 2 4 4 1 2 6 4
14 14 14 14 12 13 13 15 15 15 13 13 12 12 12 12 12 14 12 11 10 11 11 12 11 10 9 9 10 9 9 7 8 8 8 8 7 6 5 5 5 6 6 6 6 7 6 5 5 4 4 4 4 3 3 3 3 3 3 3 3 3 3 3 3 3 2 2 2 2 2 2 2 3 2 3 3 2 2 4 4 4 1 3 5
14 15 14 14 14 14 15 15 14 14 14 15 15 13 12 12 13 14 13 12 11 12 12 12 11 11 10 10 9 8 9 9 8 8 8 8 7 6 6 6 6 5 7 7 7 7 6 6 5 4 4 4 4 3 3 4 4 3 3 4 3 4 4 4 3 5 4 4 3 2 2 2 4 2 2 2 0 2 2 2 1 1 1 4 3
14 14 15 15 14 14 15 15 15 14 15 15 15 14 12 12 13 14 15 14 12 12 12 12 13 12 10 9 9 8 9 8 8 8 8 7 7 8 7 6 7 8 7 8 5 5 7 6 4 5 5 4 4 4 4 4 4 4 4 4 4 3 3 4 4 4 3 2 2 2 2 2 3 2 2 2 2 1 1 3 3 1 1 3 3
13 14 15 15 16 15 15 15 15 15 16 15 14 13 13 13 13 15 14 12 12 13 12 13 12 11 10 9 8 7 8 8 7 7 7 8 7 7 7 6 6 6 6 6 5 6 6 5 5 5 4 4 4 4 3 4 4 3 3 3 2 3 3 3 3 4 4 3 3 4 3 2 3 2 2 3 2 2 2 3 2 4 4 2 3
14 15 16 16 15 15 14 14 15 15 16 15 15 14 14 13 14 15 16 15 14 13 12 13 12 11 10 10 10 9 7 7 6 6 6 7 8 8 7 7 7 6 5 5 6 6 6 6 5 5 5 5 5 5 4 4 4 4 3 3 4 2 3 4 4 3 4 4 4 3 2 3 2 2 2 2 3 2 3 2 2 3 1 5 3
14 15 15 16 15 15 15 15 15 15 15 16 16 15 15 14 14 14 14 13 14 14 14 12 11 11 11 11 9 8 9 9 9 9 9 7 7 7 7 7 6 6 6 5 6 6 6 6 6 5 5 5 5 5 5 4 4 4 4 4 4 3 4 5 3 4 4 3 3 4 4 3 2 1 1 2 2 2 2 2 3 2 3 3 4
15 14 13 14 15 16 15 15 17 18 18 17 17 16 15 15 16 16 15 15 14 13 13 12 11 11 11 11 11 10 10 10 8 9 7 6 6 6 4 5 8 6 5 5 6 7 6 7 6 6 5 5 6 5 5 5 5 4 4 4 4 3 4 3 4 4 4 3 3 2 2 3 2 2 2 1 2 1 2 2 2 2 2 2 2
12 14 13 13 14 15 15 17 17 17 17 18 17 16 14 14 15 17 18 17 17 14 13 12 12 11 10 12 12 11 10 9 8 7 7 7 8 7 7 7 5 5 5 6 6 6 6 6 6 6 5 6 6 6 6 5 5 5 4 4 4 4 4 4 4 4 4 4 4 4 3 3 2 3 2 1 1 1 1 2 2 2 2 3 3
10 11 12 14 15 15 16 17 17 17 16 15 16 14 17 16 16 15 14 14 14 15 14 14 13 11 11 10 10 10 10 9 8 7 8 9 8 8 8 7 8 6 6 6 6 6 7 7 6 6 6 6 6 6 6 6 5 5 5 4 4 4 4 5 4 4 3 4 3 4 3 3 2 2 2 1 1 1 2 2 2 2 1 2 3
7 7 8 10 10 11 13 13 13 13 13 13 14 16 16 15 15 15 16 16 15 14 13 12 11 12 12 12 12 11 11 9 9 8 9 8 7 8 8 8 5 6 6 7 7 7 7 7 7 7 7 7 6 6 5 5 5 5 5 5 4 5 5 5 4 4 3 3 4 4 4 3 2 3 2 1 1 1 2 2 3 3 2 3 4
13 2 3 4 4 6 6 6 8 10 12 14 14 14 14 15 15 15 14 14 14 15 13 12 11 11 13 12 12 11 10 9 10 9 10 8 8 8 8 6 8 8 7 8 9 7 6 7 7 7 7 7 6 6 5 5 5 5 5 4 4 5 6 5 4 5 4 3 4 4 4 3 3 3 2 2 2 1 2 2 3 3 3 4 3
14 15 13 4 4 5 6 6 7 10 10 11 12 13 13 14 14 14 14 15 14 14 13 12 12 12 13 12 11 11 10 11 12 11 10 10 8 8 7 8 8 7 7 8 8 7 8 8 8 8 8 7 7 7 6 6 6 7 6 5 5 6 6 6 5 6 5 4 3 4 5 3 2 3 3 2 2 2 1 2 3 2 3 3 3
17 16 14 12 13 13 8 1 7 8 9 12 12 9 10 11 12 12 15 15 14 13 12 12 12 12 13 12 12 11 12 12 11 11 13 12 10 9 8 9 9 7 7 7 7 8 7 8 9 8 8 8 8 7 6 7 7 7 7 7 6 6 6 6 6 6 5 5 5 5 5 4 3 4 4 3 2 2 2 2 3 2 3 4 3
19 18 15 16 18 16 11 11 10 4 5 10 10 12 10 11 12 13 13 14 13 12 13 13 12 12 12 12 12 12 12 13 14 11 12 12 11 10 8 9 8 8 8 7 7 7 8 8 8 9 9 8 9 8 8 7 7 6 7 7 7 7 7 7 7 7 6 6 6 6 6 4 4 5 5 4 3 4 3 3 4 3 3 3 2
17 17 18 17 13 12 14 15 11 10 9 3 6 13 14 14 14 14 14 13 14 12 13 13 12 13 13 13 13 13 13 14 13 12 12 11 10 9 8 7 8 9 9 8 9 7 8 9 9 9 9 9 9 8 9 8 7 7 7 7 6 7 7 7 7 7 6 6 7 7 6 5 6 6 6 5 4 5 4 4 4 4 3 3 3
13 13 13 15 17 17 15 14 12 13 11 9 9 2 11 12 11 13 12 13 13 13 12 13 13 13 12 13 13 13 13 12 12 12 11 10 10 9 9 9 7 8 9 8 8 9 8 9 9 8 8 9 9 8 8 8 8 7 7 7 7 7 7 6 7 7 7 7 7 7 7 7 7 7 7 7 6 5 4 5 6 5 4 4 4
14 17 17 15 13 15 16 14 15 14 12 12 10 9 8 5 11 11 11 11 10 12 12 12 12 12 12 14 13 12 11 11 11 10 10 11 11 11 11 10 9 9 9 10 9 10 9 8 9 9 9 8 8 8 8 8 8 7 7 7 7 7 7 7 7 7 7 7 8 8 8 8 8 8 8 7 6 6 5 6 5 5 4 5 5
17 16 15 14 15 14 13 14 13 14 16 14 13 13 12 10 10 6 11 12 12 11 12 13 12 13 14 13 12 11 11 11 11 11 11 11 11 11 10 10 10 10 10 10 10 9 9 9 9 9 9 8 8 8 7 7 8 8 8 8 8 8 8 7 7 7 7 7 8 7 8 8 8 10 11 10 9 7 6 6 5 5 5 5 5
14 14 14 12 13 13 13 13 14 15 15 15 14 14 12 12 11 12 6 11 11 13 14 14 15 15 13 13 12 12 12 12 12 12 12 12 11 11 11 11 11 11 10 9 9 10 9 10 10 10 9 8 9 7 11 15 13 9 9 8 7 8 8 7 7 7 7 8 9 8 8 13 12 13 13 13 13 12 12 9 7 6 6 5 5
13 12 12 12 12 12 13 14 14 15 14 12 12 11 12 12 12 11 9 8 8 12 13 14 15 13 12 12 11 11 11 12 12 12 11 11 12 11 11 11 11 10 10 9 9 11 11 10 11 10 10 8 8 8 15 16 17 17 11 9 9 9 8 8 8 8 8 8 8 8 7 10 12 13 12 14 13 13 13 14 14 11 8 7 6
13 12 11 12 13 13 14 13 13 14 14 13 12 12 12 12 12 12 9 7 7 8 11 12 12 10 11 12 11 11 12 13 14 15 15 14 13 12 12 12 11 12 11 10 11 12 11 10 9 10 10 9 10 13 16 17 18 18 15 11 8 8 7 8 8 8 8 7 7 7 7 6 7 9 8 8 10 13 14 14 14 13 12 12 11
11 12 12 11 11 12 11 12 11 11 12 13 12 12 12 12 12 13 10 7 5 5 6 11 11 12 13 14 15 16 15 13 13 14 14 14 14 14 13 13 13 13 11 11 12 12 12 12 11 12 12 12 10 14 17 18 18 18 19 15 9 9 8 8 9 9 9 8 7 6 6 6 7 13 11 9 7 8 11 15 14 14 13 13 14
9 10 11 9 8 8 9 9 9 10 11 10 9 9 10 8 9 10 11 9 7 6 6 7 6 9 10 10 10 11 13 15 14 12 11 11 12 14 15 14 13 11 11 12 12 12 12 12 12 13 12 11 12 14 18 19 19 20 19 16 11 10 9 9 11 9 8 8 9 7 7 7 7 7 7 8 8 8 7 6 7 7 7 10 13
10 11 10 11 10 9 9 9 9 11 10 11 10 9 9 9 9 10 10 11 8 6 7 5 6 7 6 6 7 8 10 11 12 12 11 11 11 11 12 12 10 11 12 13 13 12 12 12 12 13 11 11 11 17 17 19 20 20 20 16 11 10 10 11 11 11 11 10 10 8 9 8 8 7 7 9 8 8 7 6 7 7 8 8 8
10 10 10 11 11 11 11 9 8 8 9 9 11 11 10 11 9 7 9 9 9 7 5 4 6 7 6 6 7 8 9 10 10 11 11 12 12 11 11 10 10 10 10 10 9 10 12 13 13 13 11 13 12 17 18 19 21 20 21 11 9 12 12 10 11 12 11 10 10 10 9 9 10 10 11 14 12 8 6 7 8 7 7 7 8
10 9 10 9 9 10 10 9 7 8 7 9 9 11 11 10 9 8 7 9 8 6 5 3 4 6 8 7 7 10 11 11 11 11 12 13 13 12 11 8 9 9 10 10 12 10 11 12 13 12 13 13 13 15 17 19 20 21 14 9 9 10 11 12 13 12 11 11 10 10 10 8 9 10 12 14 14 12 7 8 8 7 7 7 8
10 10 9 9 10 9 10 8 9 8 7 7 8 8 10 8 8 9 8 7 9 7 7 7 5 4 6 9 9 10 11 11 10 12 12 12 11 10 10 10 11 11 11 11 10 10 11 11 13 13 13 13 12 15 17 18 20 19 17 11 10 9 11 12 12 12 10 10 12 16 14 11 11 12 14 15 15 12 8 8 8 7 8 8 9
9 11 12 12 11 11 11 10 9 9 8 7 8 9 8 10 9 8 8 7 7 8 9 10 10 9 8 8 9 10 11 12 12 12 11 11 11 11 10 9 10 10 11 10 10 10 11 10 11 13 17 16 13 15 17 19 21 20 17 12 11 11 11 11 9 12 11 10 10 12 17 16 13 14 16 15 15 12 9 9 8 8 9 9 9
12 9 9 10 10 10 11 11 10 10 9 8 8 6 9 10 9 8 7 8 8 8 8 8 9 10 9 9 9 9 11 11 12 12 11 11 9 9 9 9 9 9 10 9 10 10 11 11 11 12 12 13 15 14 15 20 21 21 22 14 10 10 10 12 11 11 10 9 10 10 12 17 19 18 17 17 15 17 11 8 8 8 9 11 7
14 13 13 9 8 8 10 11 10 10 9 8 7 8 8 9 10 10 8 9 10 10 10 9 9 10 10 10 8 9 10 11 11 11 10 9 9 10 10 11 11 9 10 12 12 12 11 13 11 12 12 12 13 15 15 19 21 22 23 20 11 12 12 12 10 10 9 8 9 9 9 15 18 19 18 19 16 16 15 10 9 9 11 13 10
12 14 12 12 11 9 9 10 10 10 9 7 6 7 7 8 10 11 11 10 11 10 9 9 10 10 10 10 9 9 10 7 6 8 9 11 11 11 10 11 9 10 12 13 13 12 12 12 11 12 12 14 15 19 14 17 21 21 22 24 14 13 14 12 11 10 9 9 10 10 11 13 18 19 19 19 18 15 17 11 13 16 17 14 12
16 18 16 14 13 13 10 9 9 11 8 6 6 7 7 7 8 11 11 11 11 10 9 9 9 10 11 9 8 10 5 1 6 8 10 12 11 11 12 11 11 11 12 13 13 12 12 13 12 11 11 13 13 13 19 16 18 21 21 23 24 18 18 13 10 11 11 10 11 11 12 14 17 18 19 19 18 18 13 12 18 16 16 16 12
12 11 14 17 16 14 13 10 8 9 10 8 6 6 7 8 10 8 10 12 11 10 10 10 9 9 10 10 8 8 4 7 7 7 7 8 8 9 9 10 11 11 11 12 12 11 12 12 11 11 11 11 12 12 14 19 16 20 21 24 25 24 19 14 13 11 10 10 11 11 11 15 17 18 19 19 18 16 14 19 18 18 17 14 6
12 14 13 13 14 18 16 16 10 8 8 8 7 7 9 10 10 8 9 11 12 11 9 10 10 10 9 10 10 8 5 8 9 8 8 9 10 9 9 9 10 10 11 11 12 11 12 13 13 12 12 11 11 11 11 13 20 19 22 23 24 25 22 20 14 12 11 11 13 16 16 17 17 17 19 18 14 15 19 17 17 19 15 5 6
10 12 13 13 15 17 16 16 16 8 8 7 8 7 9 9 8 8 9 10 12 11 9 9 10 10 9 9 10 11 5 10 10 7 7 8 9 9 9 8 9 10 10 11 12 11 12 12 12 13 13 12 10 10 11 11 11 16 17 22 24 23 23 22 21 16 17 18 17 16 18 17 16 15 11 8 8 11 17 19 17 13 5 6 6
11 11 10 12 12 14 17 17 18 14 7 7 7 8 9 8 8 8 8 10 12 12 10 8 9 10 10 9 10 9 9 9 8 7 6 7 8 8 9 8 9 9 11 11 12 12 12 12 12 12 12 12 11 11 11 12 10 10 9 11 13 14 19 18 14 13 13 11 13 12 10 11 10 14 16 15 13 12 9 7 7 7 8 7 7
10 11 10 11 12 14 17 18 17 17 11 9 8 8 9 9 7 6 7 9 11 11 11 10 10 10 10 9 9 14 14 10 9 8 8 7 7 9 9 11 11 12 11 11 12 13 15 14 13 13 12 12 12 12 12 13 12 8 8 9 10 9 8 9 10 9 11 10 10 10 9 6 6 5 6 5 7 7 8 6 6 7 8 8 8
12 11 10 11 11 13 16 18 18 17 13 11 10 9 8 9 8 6 7 8 10 12 11 11 10 9 9 9 9 11 11 10 9 8 7 7 7 7 10 10 12 10 11 12 13 14 14 14 13 13 13 14 13 14 15 13 13 15 14 10 9 10 10 10 16 18 9 7 8 8 7 6 7 8 7 7 7 7 6 6 7 7 7 7 7
12 11 12 12 12 13 15 17 18 16 14 14 12 9 8 8 8 6 6 8 10 11 12 11 9 8 8 8 9 10 11 10 10 10 9 8 10 13 11 10 13 17 22 22 18 15 16 14 13 14 14 15 15 15 17 19 19 19 20 20 19 18 17 15 15 16 11 9 10 9 9 8 8 7 8 8 8 7 7 7 7 8 7 7 7
13 13 13 13 13 12 13 16 16 16 15 14 13 11 9 9 7 6 7 8 9 9 10 9 9 8 8 9 9 10 11 11 11 11 9 9 9 9 17 22 22 22 23 26 24 24 21 16 15 13 14 20 19 14 13 15 17 18 19 20 20 19 18 19 12 11 7 8 8 10 10 9 8 8 9 9 7 7 7 8 8 8 8 9 9
Wind_Direction
185 184 181 178 179 179 175 173 176 175 172 172 172 175 175 177 174 183 176 169 166 166 173 172 173 170 170 183 193 186 196 203 210 210 198 191 170 163 163 157 148 153 156 149 159 162 156 142 158 170 164 151 164 202 179 174 125 105 47 22 27 92 63 75 103 108 71 360 4 16 340 276 228 196 211 214 219 221 215 230 231 239 236 232 235
178 185 187 181 180 180 175 176 173 171 179 175 179 180 177 175 181 182 169 174 178 176 178 182 185 185 170 180 170 167 184 189 209 207 197 179 163 164 167 153 151 162 160 156 154 161 156 166 180 190 179 182 173 170 185 203 173 110 107 13 14 97 47 39 191 67 29 101 38 337 341 330 271 209 230 241 235 228 222 229 229 243 247 239 228
184 187 186 185 182 180 180 180 180 180 176 179 184 179 177 178 183 177 177 178 182 179 175 188 189 178 171 164 172 155 194 200 202 194 176 169 164 162 159 151 155 168 163 162 152 171 173 165 187 183 186 182 176 201 209 204 183 173 113 132 6 28 66 19 51 75 136 119 99 50 6 357 328 354 328 265 241 226 216 236 237 246 252 244 232
188 184 187 186 183 182 183 183 183 180 178 182 181 181 180 182 180 179 180 180 180 182 183 186 180 157 146 146 166 159 177 186 175 133 149 141 172 162 153 160 167 174 169 167 157 171 170 179 159 182 188 183 176 179 197 209 173 153 139 108 137 97 28 93 188 115 127 129 18 33 248 93 350 345 328 303 338 293 246 243 241 253 261 254 231
190 184 186 186 185 185 186 187 181 182 183 184 183 183 183 184 182 180 179 181 179 181 181 172 160 135 117 98 124 111 69 134 144 168 178 183 152 184 193 167 175 178 169 171 168 166 166 163 171 173 171 183 153 176 195 204 176 172 159 124 92 149 84 60 4 58 96 37 141 107 353 22 230 266 328 293 349 312 262 259 249 252 257 255 247
197 191 185 186 185 185 188 186 185 187 187 186 184 184 182 182 180 180 177 178 180 178 174 169 174 163 155 154 165 180 178 167 189 193 177 192 206 189 175 186 179 179 170 173 177 162 173 174 168 168 171 178 180 171 159 158 182 167 176 153 146 328 129 84 34 45 73 98 95 129 159 123 316 293 23 326 320 243 302 271 261 262 261 257 248
203 199 185 183 187 186 188 188 190 190 191 184 184 185 185 180 181 180 179 178 177 176 171 171 173 175 180 184 181 183 183 198 192 189 184 196 186 184 188 185 183 181 179 177 175 178 173 173 175 178 175 168 185 160 184 201 204 189 149 148 170 134 88 95 188 264 358 66 102 120 109 118 158 62 321 238 341 321 319 306 283 265 259 256 254
197 199 194 188 187 188 189 189 190 193 186 182 184 184 185 182 179 181 180 179 177 172 173 178 181 183 182 181 179 185 192 190 181 183 183 171 183 186 175 192 190 186 179 178 177 182 174 178 177 176 178 174 187 187 193 186 178 176 162 146 143 148 127 122 188 141 153 273 6 39 23 93 97 108 144 219 217 284 312 319 254 278 263 244 252
199 199 199 192 190 191 187 188 192 191 186 184 185 185 185 182 181 180 182 180 179 175 175 185 187 187 185 178 183 192 183 176 170 172 170 169 176 160 172 185 189 191 182 179 185 183 188 181 178 180 182 184 190 187 175 173 183 164 164 138 158 153 143 127 111 181 175 208 107 345 62 30 31 56 119 117 175 178 284 292 306 318 301 262 259
205 203 201 198 193 190 188 186 187 192 189 184 185 181 182 178 181 182 186 185 179 179 179 184 191 188 186 184 184 184 176 162 163 171 175 170 179 178 176 182 189 190 197 194 187 189 189 181 186 191 195 185 193 178 166 169 172 178 185 178 159 163 158 152 170 175 183 164 214 153 43 14 3 9 47 60 41 64 264 304 315 330 334 307 320
203 203 203 202 195 189 181 186 190 189 186 183 184 184 180 181 182 185 190 185 180 182 181 186 189 191 195 191 188 182 176 164 165 181 172 170 181 180 182 192 190 195 194 199 195 189 190 190 192 198 190 192 187 171 182 187 186 189 182 174 171 177 180 180 211 137 131 157 175 185 186 220 240 275 298 198 203 233 306 296 305 266 262 318 296
200 199 202 201 191 190 185 188 187 188 186 186 186 182 183 184 183 187 189 187 184 184 184 188 188 193 198 194 192 186 174 176 183 184 182 182 185 182 182 185 199 199 197 202 207 205 202 202 202 194 194 187 193 181 180 187 185 177 178 177 184 177 168 172 197 201 177 148 194 190 196 153 137 196 202 168 193 228 170 274 287 308 304 224 286
197 199 198 197 194 189 189 189 185 185 190 188 186 184 184 185 185 186 191 189 188 184 187 189 189 193 195 196 197 182 182 184 186 186 182 184 184 182 174 194 192 197 205 206 211 202 204 211 208 196 198 195 190 180 184 173 177 182 181 187 176 182 185 181 188 219 190 190 200 207 172 170 222 229 152 170 243 122 162 298 276 152 265 308 306
198 198 197 197 195 191 189 187 185 188 191 189 187 185 183 185 186 189 193 189 188 187 189 190 194 195 195 196 194 185 190 187 189 187 186 188 182 188 187 187 188 200 195 207 191 191 210 212 199 207 204 193 188 187 184 179 173 182 187 190 193 185 169 185 207 216 201 189 155 154 200 203 237 181 196 171 191 181 292 252 278 311 166 286 299
198 197 199 199 197 190 189 187 188 189 189 189 188 187 183 186 186 190 192 191 189 192 191 194 195 195 196 197 193 192 191 189 194 190 183 185 191 191 196 192 195 198 196 196 178 182 191 190 197 202 201 195 188 190 191 176 173 174 190 206 205 172 181 186 210 207 220 198 184 189 203 213 241 199 176 218 195 209 217 213 182 321 334 358 342
199 199 199 200 195 190 188 189 189 189 188 188 189 186 186 188 187 190 190 188 191 193 195 196 196 193 194 195 198 195 192 188 186 190 193 190 188 193 197 197 201 192 193 181 189 181 184 192 195 201 190 194 191 191 188 178 171 177 196 195 213 175 176 193 210 208 228 223 212 179 191 230 217 211 195 216 215 224 222 165 143 118 69 340 329
202 202 200 197 193 191 189 188 189 188 188 190 190 187 186 185 187 191 193 190 192 193 195 197 195 192 195 196 197 194 192 190 193 195 192 192 191 196 197 197 190 192 188 185 184 186 186 187 193 200 191 185 189 191 186 181 171 181 191 199 215 191 181 195 191 203 224 221 215 200 212 227 239 204 216 232 220 194 174 176 170 166 159 67 334
199 203 203 198 196 192 190 191 190 188 189 190 190 187 187 186 186 188 190 190 193 194 197 196 195 197 196 196 198 199 200 201 197 193 186 179 195 197 196 188 203 193 182 182 181 185 191 194 193 197 195 182 190 189 185 183 177 185 192 204 223 187 195 186 190 195 213 204 223 218 203 226 221 218 242 205 211 167 151 179 193 189 168 36 172
197 198 197 198 197 196 192 192 192 191 190 189 187 185 186 188 190 190 189 189 188 191 195 196 196 197 197 197 197 200 203 204 200 188 173 185 193 194 199 209 192 181 183 183 184 193 193 200 196 197 192 195 189 191 183 182 181 191 189 207 213 198 200 205 189 188 198 193 205 218 201 230 225 243 241 233 226 157 148 156 156 130 219 126 148
205 202 202 200 199 199 195 191 190 191 190 189 186 185 188 189 188 191 192 191 190 193 192 194 195 197 199 197 201 200 201 201 196 183 185 193 195 191 201 201 204 181 189 185 188 193 197 199 202 202 201 198 193 193 187 183 181 195 192 198 203 193 213 222 215 187 189 187 197 220 222 223 223 222 244 258 244 165 156 168 149 158 155 132 134
218 206 209 206 208 206 201 193 192 191 189 185 186 188 189 187 190 189 187 189 194 196 193 196 192 199 197 198 198 197 202 200 196 191 195 197 192 192 196 204 174 196 183 187 194 199 198 205 205 211 211 208 203 196 188 181 184 194 198 199 190 192 209 224 223 221 194 186 195 217 227 219 193 225 238 245 245 170 165 169 155 160 162 158 164
3 337 172 184 204 208 206 191 187 190 188 189 191 188 188 189 191 190 190 193 191 192 194 193 194 196 199 199 199 200 199 197 199 200 204 200 194 195 195 180 193 202 186 193 199 192 195 199 206 215 219 214 208 204 189 182 188 190 204 195 196 193 201 220 208 231 219 200 195 216 232 218 187 220 235 234 238 223 200 191 192 186 200 201 189
14 15 10 21 151 159 169 180 189 189 188 187 193 193 192 191 191 191 191 195 193 194 193 191 193 194 200 200 198 198 196 199 202 203 206 204 198 197 181 186 200 198 194 200 198 191 192 197 209 217 220 221 215 203 192 189 195 194 195 200 199 193 200 202 208 217 219 207 217 219 241 223 181 220 220 230 206 227 189 219 229 190 206 214 183
21 23 22 18 24 23 22 234 182 177 184 187 192 191 194 195 195 193 197 195 193 193 191 193 194 199 198 197 199 199 196 200 203 207 210 209 204 198 182 189 196 186 189 201 196 192 188 194 205 213 216 221 218 210 198 198 201 197 198 199 196 200 205 210 210 210 207 198 213 230 238 222 218 234 241 229 208 198 197 201 222 213 209 217 195
27 24 22 26 28 26 21 18 7 340 195 180 176 185 207 200 193 197 201 196 195 191 192 194 193 194 195 199 201 199 202 203 206 207 211 210 210 205 192 194 187 188 193 189 193 185 191 195 203 207 213 217 218 211 207 205 205 200 202 200 199 201 205 210 212 210 211 200 206 218 226 210 206 227 238 233 213 215 207 201 215 209 208 209 194
31 27 26 27 24 24 25 19 14 14 5 335 188 178 195 206 202 198 196 195 196 192 193 192 193 195 199 200 202 203 205 205 206 209 210 210 209 209 205 204 195 195 191 188 190 185 192 200 204 206 208 217 218 214 213 214 209 202 202 204 202 203 207 207 210 210 209 205 215 217 217 203 203 216 231 228 210 219 206 211 219 216 210 199 208
26 29 27 27 25 22 19 17 16 18 14 19 13 302 206 208 209 201 198 196 193 192 190 192 193 197 200 202 202 206 205 205 206 209 209 207 208 205 204 208 200 202 196 193 191 191 195 196 203 200 205 211 217 216 217 217 215 209 207 206 207 209 208 208 210 212 211 211 214 215 212 204 209 210 219 220 212 210 205 218 214 217 203 202 218
22 26 22 19 18 20 17 12 14 14 12 17 17 16 1 287 226 206 201 194 193 191 192 192 193 198 201 203 207 204 203 205 206 205 207 208 207 207 207 205 196 200 205 203 197 198 197 193 198 200 205 202 207 215 219 219 216 212 208 211 211 211 212 212 212 210 211 213 215 219 218 212 211 211 212 215 203 216 199 224 213 206 204 207 221
24 22 17 15 17 10 8 10 9 12 15 12 12 9 1 357 348 257 198 198 187 188 192 193 196 200 202 203 202 200 201 203 204 203 207 208 208 207 206 205 203 205 205 205 205 201 199 202 201 200 200 197 198 208 212 212 212 214 212 214 212 214 214 216 216 213 209 211 216 218 222 221 218 221 214 219 217 208 202 218 215 190 204 210 220
21 21 12 10 11 9 8 4 8 13 11 10 8 5 0 358 348 344 281 201 184 190 190 195 199 202 202 201 199 198 200 200 200 204 207 207 208 206 205 207 208 208 208 203 203 204 204 206 206 205 201 198 205 206 213 213 211 211 209 215 215 217 217 219 220 218 216 213 216 217 223 226 223 225 227 226 226 222 219 219 220 180 199 199 215
15 17 15 5 3 8 6 4 5 6 6 4 4 358 358 354 354 343 344 324 216 189 194 196 202 201 201 200 199 203 200 199 201 203 204 205 207 205 206 208 210 209 209 206 204 207 210 210 209 207 204 205 205 207 207 208 212 212 210 213 215 218 215 216 218 220 224 218 218 219 222 228 229 232 232 229 231 229 228 230 230 219 201 195 205
9 8 13 11 3 3 7 1 358 358 357 2 356 357 355 354 343 344 333 351 330 212 192 200 199 197 198 195 199 202 203 207 203 203 201 202 202 202 204 205 206 208 208 205 208 211 213 213 212 211 212 211 214 211 202 204 208 210 211 214 212 217 213 213 213 217 224 222 222 218 219 214 220 224 227 230 231 233 232 234 235 234 228 220 214
5 7 7 5 5 358 359 357 355 353 356 350 353 352 355 344 339 333 321 319 318 310 218 191 193 198 198 195 197 195 201 209 213 213 209 203 199 199 202 205 207 208 205 205 211 211 213 213 213 215 218 216 219 210 203 201 204 207 210 212 219 217 216 215 213 216 220 223 224 221 223 214 219 222 224 225 224 230 228 232 237 239 239 233 232
1 3 358 355 355 354 350 355 345 347 348 343 348 348 339 326 325 325 328 315 315 315 325 307 262 217 213 215 218 211 202 203 207 214 219 219 209 204 203 203 206 202 203 211 214 214 215 213 213 216 220 220 220 214 201 201 202 204 207 206 221 217 219 222 221 216 217 218 220 219 219 226 216 214 218 217 216 223 223 216 222 223 228 237 235
349 349 351 349 346 347 350 349 353 348 341 342 345 345 331 327 341 341 334 329 316 300 303 312 316 311 296 264 237 230 229 221 213 208 208 215 221 226 217 209 202 198 201 208 212 215 218 218 219 218 220 223 224 215 202 200 202 202 204 200 214 219 223 226 226 224 222 219 220 217 221 226 227 215 209 209 211 215 213 217 219 222 223 227 224
344 338 338 342 343 344 342 343 344 342 343 345 340 334 338 338 337 335 326 327 332 327 301 283 290 296 294 282 273 255 239 234 225 215 210 213 215 218 223 220 213 209 207 208 209 213 217 219 222 221 222 228 229 216 205 202 201 202 199 192 204 217 221 225 227 226 223 222 220 219 219 223 232 231 223 212 213 210 207 218 223 228 232 229 230
337 332 325 324 332 332 331 332 336 341 344 352 336 335 341 332 325 324 319 319 325 323 326 297 258 254 259 256 248 249 245 238 228 221 217 215 211 211 213 209 220 220 213 208 211 207 212 214 218 217 221 229 234 221 208 206 203 201 189 192 202 211 219 223 228 226 225 222 219 217 216 219 224 231 226 212 212 208 210 216 224 232 234 240 245
335 333 322 322 326 326 327 332 335 337 350 342 344 339 330 323 321 321 320 328 323 331 327 323 315 282 254 250 239 234 239 240 235 228 224 224 218 214 210 200 210 216 219 217 213 216 216 213 214 215 215 222 230 222 207 209 206 198 188 192 200 204 215 220 227 229 226 225 222 216 212 219 225 230 224 214 207 196 211 215 221 230 238 242 249
334 332 331 333 326 323 324 328 333 338 341 339 344 341 330 327 324 324 322 326 330 327 329 324 318 316 308 283 254 241 235 233 232 230 228 225 220 215 212 205 212 215 223 223 219 220 221 218 214 216 216 218 229 226 206 207 205 197 193 202 199 204 212 217 218 228 226 225 227 223 220 220 222 228 225 218 203 189 206 210 213 222 234 242 243
329 325 331 324 321 313 319 329 333 335 330 338 338 340 338 334 323 318 325 325 322 315 307 307 306 302 292 282 279 254 235 233 231 232 228 226 222 220 215 210 212 214 221 221 221 220 222 221 218 217 217 215 224 229 212 205 203 198 193 198 200 200 212 215 216 219 225 225 226 228 222 221 222 223 225 222 205 193 203 208 206 218 227 241 241
321 323 327 323 324 320 318 321 323 325 331 333 341 338 340 333 325 318 327 325 315 310 311 309 296 291 290 285 279 273 255 231 228 229 227 225 219 220 218 218 219 215 220 225 224 224 223 228 221 220 220 219 221 225 222 203 204 197 196 194 200 207 212 214 213 216 217 219 222 223 225 217 215 220 224 226 215 200 205 209 209 220 223 234 242
314 315 322 324 324 322 321 320 319 320 324 329 330 332 324 332 325 318 320 318 312 309 309 307 300 293 287 287 288 285 278 274 250 231 224 223 220 218 219 220 220 221 224 226 226 226 227 228 226 222 223 225 222 219 225 209 202 199 195 195 203 207 208 208 213 218 217 221 224 223 226 218 209 213 219 224 220 205 207 210 221 223 230 231 238
322 322 324 327 321 322 324 323 318 317 316 315 323 315 318 318 311 307 313 313 310 310 310 307 294 286 287 288 287 289 286 243 255 248 233 227 220 215 214 213 217 221 224 228 228 226 228 231 229 226 225 225 224 222 218 218 203 199 196 198 206 210 203 204 206 217 216 220 222 225 228 217 207 210 215 220 219 212 204 217 224 226 229 231 233
304 303 311 319 317 314 315 316 316 311 310 315 320 308 305 310 303 303 304 308 310 311 311 308 302 298 297 292 284 277 231 236 247 253 266 277 257 232 219 215 213 216 222 227 229 227 228 230 227 228 226 225 224 224 216 215 209 196 198 199 207 213 201 204 208 220 216 217 222 222 223 216 208 208 211 216 218 208 210 218 221 226 231 231 223
299 305 310 310 309 311 312 310 312 309 306 310 309 302 298 298 301 305 305 305 308 309 311 306 306 304 305 306 300 288 175 239 239 230 228 228 237 238 233 219 214 216 220 225 229 225 227 229 231 231 230 227 223 221 226 211 209 200 200 202 206 209 212 206 210 220 220 219 222 219 217 213 211 208 210 214 217 213 216 221 218 222 224 204 207
284 296 303 304 307 306 305 305 306 311 308 303 301 295 290 289 293 296 301 301 306 308 306 302 303 303 303 304 301 296 235 214 246 239 219 219 222 224 233 231 215 215 216 222 228 226 228 228 230 231 230 228 220 221 223 218 203 208 205 205 205 207 211 211 214 219 215 218 219 219 216 214 213 212 206 199 192 210 215 218 220 221 213 212 202
284 284 295 302 304 303 302 304 302 305 308 293 288 292 282 281 286 290 293 301 308 304 302 300 302 304 302 301 297 288 282 274 266 265 249 227 219 217 221 231 238 224 214 217 222 224 227 227 228 227 227 225 222 221 220 219 207 199 190 195 208 216 216 216 221 232 228 222 227 225 220 210 208 204 206 210 213 217 208 205 213 209 213 209 201
274 282 286 289 290 292 293 297 296 299 306 298 287 280 286 288 282 277 292 301 304 301 299 300 300 300 299 297 292 283 282 275 268 260 258 255 216 211 213 219 221 224 223 219 218 219 224 223 223 223 223 222 221 222 220 217 209 188 192 188 195 191 184 188 211 218 218 220 224 228 220 201 194 192 210 215 218 212 210 188 190 192 206 204 207
280 279 278 279 283 284 287 290 289 294 300 296 288 283 280 286 288 288 295 297 298 296 294 293 291 288 286 288 286 286 280 274 268 266 261 258 259 238 236 238 234 230 229 225 220 220 220 219 221 220 216 221 221 222 223 209 204 192 191 190 178 195 195 200 214 210 198 213 227 232 224 202 194 206 202 213 211 207 210 206 200 194 197 198 196
273 275 276 275 273 274 279 282 285 291 294 292 289 283 284 284 287 289 294 293 297 297 291 285 284 282 283 285 286 286 286 284 281 278 276 268 247 245 249 249 261 247 236 233 224 223 219 214 216 220 214 215 216 221 216 196 197 193 196 194 200 198 199 201 209 192 189 200 211 220 217 209 203 204 213 217 214 203 209 205 211 209 203 197 196
276 275 275 274 274 268 269 274 279 288 291 291 291 288 288 287 284 282 291 290 288 288 285 284 284 281 278 280 281 281 281 278 272 271 267 270 281 261 238 240 239 239 229 227 226 230 233 225 218 227 225 226 235 236 215 196 196 195 194 200 202 199 195 204 166 123 175 201 213 218 220 214 213 213 218 222 216 214 214 215 213 202 204 209 208